Wind_Speed
23 24 25 27 26 25 27 32 34 34 34 35 36 37 38 38 39 40 41 42 42 41 40 40 39 40 41 43 45 47 48 49 49 49 50 50 50 49 48 47 46 46 46 46 46 46 45 44 43 43 42 42 41 41 40 39 39 38 37 37 36 35 35 34 33 32 30 29 28 27 26 24 23 22 22 22 22 21 21 21 20 20 20 20 20 21
23 24 25 26 26 26 26 29 31 31 31 32 33 34 35 35 36 38 39 40 41 41 40 39 40 40 41 42 44 45 47 48 48 49 49 50 50 50 49 48 47 46 45 45 45 44 44 42 42 41 41 41 40 40 40 39 39 39 38 37 36 35 34 34 33 31 30 29 28 26 25 24 23 22 22 22 22 22 21 21 20 20 20 20 20 21
23 23 24 25 25 25 25 26 28 29 30 30 31 32 32 32 33 34 35 36 38 39 39 39 39 40 40 41 43 44 45 46 47 48 49 50 50 49 49 48 46 44 43 42 42 42 42 41 41 40 40 40 40 40 40 39 39 38 38 37 35 34 33 32 32 31 30 29 27 26 24 23 23 23 22 22 22 22 21 21 21 20 20 20 20 21
22 22 23 23 23 24 26 26 27 28 29 29 31 31 31 31 31 32 33 34 35 36 37 38 39 39 39 39 41 42 44 45 46 48 48 49 49 49 48 47 45 42 40 40 40 40 40 41 41 41 40 40 40 40 40 39 38 38 37 36 35 33 32 31 31 30 29 28 27 25 24 23 23 23 23 22 22 22 22 21 21 20 20 20 20 21
25 24 24 22 22 23 27 28 28 28 28 29 30 30 31 30 30 31 32 33 34 34 35 36 37 37 37 37 38 41 43 44 46 47 47 48 48 47 47 45 42 40 38 39 39 39 40 41 42 42 41 41 40 40 40 39 38 37 37 36 35 34 32 31 30 29 29 28 26 25 24 24 23 23 23 23 22 22 22 21 21 20 20 20 20 20
27 26 26 24 23 24 27 28 27 26 27 27 27 28 29 30 31 31 31 32 32 33 34 34 35 36 36 36 37 39 41 43 44 45 45 45 45 45 45 43 40 38 38 39 40 41 41 42 43 43 42 42 41 41 40 39 38 38 38 37 36 35 34 32 31 30 29 28 27 26 25 24 24 23 23 22 22 22 22 21 21 21 20 20 20 20
25 27 27 26 26 26 25 26 26 25 26 25 25 25 28 29 30 31 31 32 33 33 34 34 35 35 35 35 36 38 39 41 42 43 43 42 42 42 42 41 39 38 39 41 42 43 44 44 44 43 43 42 42 42 41 40 40 39 39 39 38 37 36 34 33 32 31 29 28 27 26 24 23 23 23 22 22 22 21 21 21 21 20 20 20 20
23 26 28 26 26 26 25 25 26 26 26 25 24 24 25 27 28 30 31 32 33 33 33 33 33 33 33 34 35 35 36 37 38 39 39 39 39 39 40 40 39 39 40 42 44 45 45 45 44 43 42 42 42 42 42 41 41 41 40 40 39 38 37 36 34 33 31 30 28 27 26 24 23 23 23 23 22 22 21 21 21 21 21 21 21 21
22 24 27 28 26 24 24 27 29 29 28 26 25 24 22 24 26 28 29 30 31 32 31 31 31 31 32 32 33 33 34 35 36 37 37 38 38 38 39 39 39 39 40 42 44 45 46 45 43 43 42 43 43 43 43 43 43 42 41 40 39 38 37 35 34 33 31 30 28 27 25 24 23 23 23 23 22 22 22 21 21 21 21 21 21 21
23 22 23 26 26 24 21 24 29 32 30 28 26 25 24 24 24 23 24 26 28 29 30 30 29 30 31 32 32 32 33 34 36 38 38 38 39 39 39 38 38 38 40 42 44 45 46 45 44 43 43 43 44 44 44 43 43 42 41 39 38 37 36 35 33 32 31 29 28 26 25 24 23 23 23 23 23 22 22 22 21 21 21 21 21 21
20 22 22 22 24 24 22 22 25 28 28 27 26 27 26 24 22 19 16 18 23 27 29 29 30 30 29 30 31 31 31 33 35 37 37 38 38 37 36 35 35 36 38 41 43 45 45 45 45 44 44 44 44 44 44 44 43 42 40 39 38 36 35 34 32 31 30 28 27 26 24 24 24 24 24 23 23 23 22 22 21 21 21 21 21 21
17 20 20 22 23 23 23 24 26 27 25 23 19 18 21 23 24 21 17 14 18 24 26 27 29 30 31 30 30 30 30 31 32 34 34 35 34 33 32 32 32 33 35 38 40 42 44 45 45 45 45 45 45 45 44 44 43 42 41 40 38 37 35 33 32 30 28 27 26 25 24 24 24 24 24 24 23 23 22 22 22 21 21 21 21 21
19 19 19 20 21 21 20 21 21 21 18 17 12 8 11 19 23 24 23 20 22 24 25 25 26 29 31 32 31 29 28 29 31 32 31 31 31 31 30 30 30 31 33 34 36 39 42 43 44 45 45 45 45 45 45 44 44 43 42 41 39 37 35 33 31 29 27 26 25 25 24 24 24 24 24 24 23 23 23 22 22 22 21 21 21 21
15 15 13 11 11 14 16 16 13 10 12 16 16 16 18 20 22 24 24 23 23 24 24 23 23 25 27 30 31 30 28 28 28 29 28 29 30 30 30 29 30 30 31 32 34 37 40 41 42 43 44 44 44 44 44 43 43 42 41 40 39 37 35 33 30 28 27 26 25 25 25 25 24 24 24 24 24 23 23 22 22 22 22 21 21 21
10 10 9 8 8 9 13 15 14 13 16 21 23 22 23 21 21 20 20 18 20 22 21 20 20 21 23 25 28 29 28 27 25 25 26 27 29 31 30 29 29 29 30 30 33 36 38 40 41 41 42 43 43 43 43 42 41 41 40 39 37 35 33 31 29 27 26 26 25 25 25 25 25 24 24 24 24 23 23 22 22 22 22 22 21 21
10 8 8 9 8 9 14 16 16 17 20 23 25 25 24 22 20 18 17 15 17 18 14 8 7 11 16 22 26 27 27 25 24 23 23 24 27 30 30 28 28 28 28 30 32 35 37 38 39 41 42 43 43 43 42 41 40 39 38 37 35 33 30 28 27 26 26 26 25 25 25 25 25 24 24 24 23 23 23 23 22 22 22 22 21 21
12 9 8 8 8 10 17 19 18 18 20 22 24 25 25 24 23 23 21 18 14 11 7 5 5 5 6 11 18 24 26 25 23 23 23 23 26 29 30 29 27 27 28 30 32 35 36 37 38 40 41 42 42 42 40 39 38 37 36 34 32 29 27 26 25 25 26 26 26 26 25 25 24 24 24 24 23 23 23 23 23 22 22 22 21 21
13 11 10 9 9 12 19 20 19 19 21 20 21 22 22 24 25 26 24 21 15 8 5 5 5 5 4 3 9 19 25 25 24 22 22 23 25 27 29 29 29 28 28 29 31 34 36 37 38 39 40 39 39 38 37 35 34 33 32 30 28 26 25 25 25 25 26 26 26 26 25 25 24 24 24 23 23 23 23 23 22 22 22 22 21 21
16 17 15 10 12 17 21 20 20 19 19 18 18 18 18 20 23 25 24 21 16 11 7 6 6 5 5 3 8 16 23 26 25 21 19 20 23 25 26 27 27 26 26 27 29 32 35 37 38 39 39 37 36 35 33 32 30 29 28 26 25 24 24 24 25 25 25 25 26 26 25 25 24 24 24 23 23 23 23 22 22 22 22 21 21 21
20 22 21 20 20 19 19 20 20 19 18 19 19 19 19 20 21 21 20 20 18 16 13 8 7 7 8 12 17 20 21 25 24 20 17 18 19 20 24 26 25 24 24 25 26 29 32 34 35 35 35 35 33 32 31 29 28 26 25 24 23 23 23 24 24 25 25 25 25 25 25 25 24 24 24 23 23 23 22 22 22 22 21 21 21 21
23 25 27 26 23 19 17 21 25 26 25 25 26 25 23 21 19 18 19 18 18 18 16 9 9 13 17 20 20 20 22 25 22 17 15 15 15 17 21 25 25 23 23 23 24 26 29 31 31 31 31 32 31 30 29 28 26 25 24 23 22 22 23 23 24 24 24 24 25 25 25 24 24 24 24 23 23 23 22 22 21 21 21 21 21 21
24 26 29 29 27 26 26 28 29 30 30 31 31 27 22 19 17 16 17 18 18 16 13 11 16 23 25 24 21 19 22 25 24 19 12 8 8 13 19 24 24 22 21 21 22 25 27 29 29 29 29 29 29 28 27 26 25 24 23 22 22 22 22 23 23 23 24 24 25 25 24 24 24 24 23 23 23 22 21 21 21 21 21 21 21 21
28 29 32 32 32 31 30 30 29 29 29 30 31 29 26 24 23 22 23 23 22 21 20 23 26 26 24 21 17 17 21 25 26 21 11 6 5 9 17 22 22 21 20 19 20 22 25 27 28 28 27 27 27 27 26 25 24 23 22 21 21 21 22 23 23 23 24 24 24 24 24 24 23 23 23 23 22 22 21 21 21 21 21 21 21 20
30 31 32 32 31 30 30 29 29 30 30 30 30 30 31 32 32 31 31 30 29 28 25 24 22 19 18 16 14 14 18 23 25 20 11 6 6 9 15 20 20 19 19 19 19 21 24 25 27 28 27 26 25 26 25 24 23 22 22 21 21 21 22 23 23 24 24 24 24 24 23 23 23 23 23 22 21 21 20 20 21 21 21 20 20 20
30 31 31 32 33 34 34 34 35 36 36 35 34 34 34 34 35 35 34 34 32 29 24 17 11 8 10 12 11 12 17 22 24 20 13 6 4 7 13 18 19 17 17 17 18 21 23 24 25 27 27 26 24 24 24 23 23 22 22 21 21 22 22 23 24 24 24 24 23 23 23 23 23 22 22 21 21 20 20 20 20 20 20 20 20 20
34 35 36 38 40 42 44 45 46 46 46 44 41 39 37 35 34 33 31 29 28 24 16 8 5 5 6 7 7 10 16 21 23 22 17 8 3 4 10 16 17 15 14 14 16 19 21 22 23 25 27 26 24 23 23 22 22 22 22 22 22 22 23 23 24 24 24 23 23 23 23 23 22 22 21 21 20 20 20 20 20 20 20 19 19 19
38 39 41 43 44 45 46 47 48 49 49 48 46 43 40 35 29 24 21 23 23 18 8 6 7 7 5 3 4 8 14 18 21 22 19 12 4 3 7 13 15 13 12 12 14 17 19 19 21 23 26 27 25 23 23 22 21 21 21 22 22 22 23 23 23 23 23 22 22 22 22 22 22 21 21 20 20 19 19 19 19 19 19 18 18 19
37 38 39 41 42 43 44 45 45 46 46 46 46 45 41 35 24 14 12 20 21 15 7 7 8 7 6 5 6 8 13 15 19 20 18 11 4 2 7 12 15 14 12 11 11 13 14 16 18 22 25 27 26 25 23 21 21 21 21 22 22 22 23 22 22 22 22 22 22 22 22 22 22 21 20 20 19 19 19 19 19 18 18 18 18 19
34 35 37 38 39 40 41 42 42 42 41 41 40 39 37 32 24 18 20 23 19 12 8 8 9 8 6 4 4 6 9 12 17 20 18 11 4 3 9 13 14 14 13 10 8 7 7 11 15 19 22 24 25 25 23 21 21 21 21 21 22 22 22 21 21 21 21 21 22 22 22 22 21 21 20 20 19 19 19 18 18 18 18 18 19 19
33 33 34 35 36 36 35 35 35 35 35 36 36 36 34 31 27 26 27 25 20 13 7 8 9 7 4 2 2 2 4 10 17 22 21 12 4 4 10 12 14 15 14 8 4 2 1 6 11 16 19 22 24 24 24 22 21 21 21 21 21 21 21 20 20 20 21 21 22 22 22 21 21 21 20 20 19 19 19 18 18 18 18 18 19 20
34 33 32 32 32 31 30 30 30 31 32 33 34 33 31 29 27 27 26 25 22 17 11 9 8 7 5 3 3 2 4 10 18 24 24 15 9 8 12 11 13 16 16 10 5 2 2 3 7 13 17 19 21 23 24 23 22 21 22 21 21 21 20 20 19 20 21 21 21 21 21 21 21 20 20 20 19 19 19 19 18 18 18 18 19 20
33 31 30 29 28 28 27 28 29 30 30 31 31 30 29 28 27 26 26 24 22 20 17 13 10 8 6 5 5 4 3 9 18 25 26 18 12 11 15 13 13 14 15 11 6 3 3 3 5 9 14 16 18 21 24 24 23 22 21 21 21 21 21 19 18 18 19 19 20 20 21 21 21 20 20 20 20 19 19 19 19 18 18 19 20 20
31 30 28 27 27 27 27 28 28 29 29 29 29 28 28 27 26 25 24 23 21 19 17 15 12 8 6 6 6 4 3 9 18 26 27 20 13 11 14 14 13 13 13 9 4 3 3 3 4 7 11 13 15 18 21 23 23 22 22 21 21 21 21 20 19 18 17 18 18 19 19 20 20 20 20 20 20 19 19 19 19 19 18 19 20 20
29 29 27 26 26 27 27 28 28 28 27 26 26 25 24 23 22 22 21 20 18 16 15 14 12 9 5 5 4 2 3 10 18 25 27 21 14 12 15 14 13 13 11 6 4 4 4 3 4 5 7 11 13 15 18 21 22 23 23 22 22 22 22 21 20 19 18 18 18 19 19 18 18 19 19 18 18 19 19 19 20 20 19 19 20 20
27 27 26 25 25 25 26 27 26 25 24 22 22 21 20 19 18 17 17 16 15 14 13 12 12 10 9 5 3 3 4 11 19 25 27 24 18 14 14 14 15 14 9 6 4 3 2 3 5 5 5 6 8 11 14 17 20 22 22 23 22 22 22 22 21 20 20 19 19 19 19 19 18 18 18 17 17 17 17 17 18 19 19 19 19 19
25 25 24 23 23 23 24 24 24 22 21 20 18 17 16 15 14 14 13 12 11 11 11 10 9 9 10 10 8 7 9 15 21 25 26 25 22 17 13 13 15 15 10 6 4 4 3 3 5 7 7 5 4 7 11 16 18 20 20 20 20 20 20 20 20 21 21 20 20 20 20 19 19 19 18 18 17 15 15 14 15 16 17 18 17 18
23 22 22 22 22 22 23 23 22 20 18 16 15 13 12 11 11 10 9 8 8 7 7 7 6 5 7 9 11 13 16 19 23 25 25 24 21 18 13 12 15 16 13 9 6 5 4 4 4 5 4 3 3 4 8 14 17 17 17 18 17 17 18 18 19 20 20 20 20 20 20 20 20 20 19 19 18 17 15 14 14 14 15 16 16 17
20 20 21 21 22 22 23 22 20 18 16 13 12 10 9 8 7 6 5 4 4 4 5 4 4 4 5 7 9 12 16 20 24 25 24 22 19 17 14 13 14 15 15 13 13 10 6 5 5 4 3 2 2 5 10 15 16 16 16 16 16 16 16 17 17 18 19 19 20 20 20 20 20 20 20 20 20 19 18 17 17 16 15 15 16 17
18 18 20 21 23 23 23 21 19 17 15 12 10 8 6 5 3 3 2 3 4 5 6 7 9 10 10 10 11 13 17 21 23 23 21 19 18 17 17 16 15 14 15 15 16 14 9 6 5 5 4 2 2 5 10 14 16 17 16 15 14 14 15 16 16 17 18 18 19 19 19 19 20 20 20 21 21 21 21 21 20 20 19 18 18 18
18 19 20 22 24 25 24 21 19 16 13 10 8 6 4 2 2 3 5 6 8 9 11 13 15 16 17 17 17 17 19 20 21 20 19 18 17 18 19 19 18 17 16 16 15 14 12 8 6 5 5 4 3 4 8 11 15 17 16 12 9 10 13 14 15 16 17 17 17 17 17 18 18 19 19 20 20 21 22 22 22 22 22 21 21 20
19 20 21 23 26 26 23 19 16 14 10 8 6 4 3 2 3 5 7 8 10 12 14 16 18 20 20 20 20 19 19 19 18 18 17 17 18 19 20 20 19 18 17 16 15 14 13 11 9 8 7 6 6 6 7 9 13 16 16 12 9 9 11 13 14 15 16 16 16 17 16 16 17 17 18 19 19 20 21 21 21 21 22 22 22 22
20 21 23 24 25 24 21 17 13 10 8 6 5 4 3 2 2 3 5 7 8 10 12 15 17 18 19 20 20 19 18 18 17 17 16 16 16 16 17 18 19 19 18 16 14 13 13 13 12 11 10 10 8 5 4 8 12 15 14 13 12 10 9 11 14 15 15 15 16 16 16 16 16 16 16 17 17 18 18 18 18 19 19 20 21 22
21 23 24 26 25 23 18 13 9 7 6 5 4 3 3 2 2 2 3 4 5 6 8 10 13 14 15 15 17 18 18 18 17 16 15 14 13 12 13 14 16 17 18 17 14 12 12 12 14 14 15 13 10 7 4 7 11 12 12 13 12 9 4 6 11 14 15 15 15 15 15 15 15 15 15 15 15 15 15 15 16 17 17 18 18 19
23 24 26 26 24 19 13 9 7 6 5 4 3 3 2 2 1 1 2 3 5 6 7 9 11 13 13 12 12 15 17 18 18 17 16 14 13 11 10 11 12 14 16 17 15 13 12 12 12 13 13 11 11 10 9 9 10 11 11 12 11 9 6 4 6 9 12 13 14 13 13 13 13 13 13 13 13 14 14 14 15 16 16 17 17 17
23 24 24 22 19 14 9 8 7 6 5 4 2 2 1 1 0 1 2 4 5 6 7 8 9 9 6 7 9 11 14 16 18 18 17 16 14 13 12 11 10 11 12 14 15 15 13 12 11 11 11 10 9 10 11 10 10 10 10 10 11 11 10 5 3 5 8 10 11 11 11 11 11 11 11 12 13 14 14 15 15 15 16 16 16 17
23 22 21 19 15 12 10 9 7 6 4 3 2 1 0 0 1 2 4 5 5 5 5 7 7 5 4 5 7 8 9 11 14 16 17 16 15 14 13 12 11 10 10 10 10 10 11 11 12 12 11 9 8 8 9 11 11 10 10 10 10 11 11 10 8 7 7 8 9 10 10 10 10 11 12 13 14 15 15 15 15 15 15 15 16 17
22 21 20 17 13 11 10 9 7 5 3 2 1 0 1 2 3 3 4 5 5 4 5 6 7 6 4 4 5 6 6 7 9 11 13 15 15 14 13 13 12 11 11 10 9 8 7 7 7 9 9 7 6 5 6 9 10 10 11 11 11 11 11 12 12 12 11 10 10 10 10 11 12 13 13 14 14 14 15 14 14 14 14 14 15 16
22 21 19 15 12 11 10 8 6 4 2 1 0 1 2 2 3 4 4 4 4 5 6 6 6 6 5 6 7 7 7 7 8 9 10 12 13 13 13 12 11 11 11 10 10 9 8 6 5 4 6 6 5 4 6 8 10 11 11 12 11 11 12 14 14 13 13 13 12 12 12 13 13 13 13 13 12 12 13 14 13 13 13 13 14 14
22 20 17 14 11 10 9 7 6 4 2 1 0 1 2 2 3 3 4 4 4 5 5 6 5 4 4 5 7 8 9 8 8 8 9 10 11 12 12 12 11 10 10 9 8 7 6 5 4 3 4 5 6 6 7 9 10 11 11 11 11 12 12 13 14 13 13 13 12 12 12 13 14 14 13 12 10 11 12 13 13 13 13 13 13 14
22 19 16 13 11 9 8 7 5 3 2 1 1 1 2 3 4 4 4 5 5 5 6 6 6 5 4 4 6 7 7 7 7 7 8 9 10 10 11 11 10 9 8 7 7 6 5 3 1 3 6 8 9 8 9 9 10 10 10 11 12 12 12 13 13 13 12 12 12 11 12 12 13 13 13 12 11 11 12 12 13 13 13 12 13 13
21 19 16 13 11 9 8 6 5 3 3 2 1 1 3 4 4 5 5 5 6 6 6 7 7 6 4 5 6 6 7 7 7 6 7 8 9 10 10 10 10 8 6 4 4 5 6 5 4 2 3 7 10 10 11 11 10 9 8 10 12 13 13 13 12 11 11 10 10 10 11 12 13 13 14 13 11 9 9 10 12 13 12 12 12 13
Wind_Direction
269 268 268 267 266 266 266 266 266 266 267 270 272 273 271 267 262 257 253 250 247 246 246 246 246 247 247 249 250 251 252 252 252 253 253 253 252 251 250 249 248 247 246 244 243 241 239 237 236 235 235 235 233 231 228 224 221 220 220 219 220 220 220 220 219 217 216 215 216 217 219 222 224 224 224 223 224 224 225 226 228 229 230 232 234 236
275 273 271 269 266 264 265 266 265 264 264 264 265 266 266 267 265 262 258 253 249 247 245 245 245 245 246 247 249 250 251 251 252 252 252 252 252 251 250 249 248 246 245 243 242 241 239 237 236 235 235 235 233 229 225 222 221 220 220 220 219 219 219 218 217 216 215 215 217 219 221 222 222 222 222 222 222 223 224 225 227 228 229 231 233 234
284 280 276 273 268 265 265 266 266 265 264 264 263 263 264 264 264 263 261 257 253 249 246 244 244 244 244 245 247 248 250 251 251 251 251 251 251 250 250 248 246 245 243 242 240 239 237 236 235 234 234 234 232 229 225 222 221 221 220 219 218 217 217 217 216 216 216 216 218 219 220 220 220 219 219 220 220 221 223 224 225 226 228 229 231 233
287 284 282 279 274 268 266 267 267 266 265 264 264 264 264 263 262 262 261 260 257 253 249 246 244 243 243 244 245 247 249 250 251 251 250 250 250 249 249 247 245 242 241 239 238 237 236 235 234 233 233 232 231 228 225 223 222 220 219 217 215 214 214 215 216 216 217 218 218 219 218 217 217 217 217 218 219 220 222 223 224 225 226 227 229 230
285 283 283 282 278 274 273 271 270 268 266 264 263 264 263 262 261 261 261 260 258 256 253 249 246 243 243 243 244 246 247 249 250 250 249 249 248 248 247 245 243 241 240 239 237 235 234 233 232 232 231 231 230 228 225 222 220 217 215 213 212 212 213 214 215 216 218 218 218 217 215 215 215 216 216 217 217 218 220 222 223 223 224 225 227 229
283 281 281 279 276 275 277 275 272 270 269 266 264 263 263 262 261 260 259 258 256 255 254 251 248 245 244 243 244 245 247 248 249 248 248 247 247 247 246 244 242 241 240 239 237 235 234 233 232 231 230 230 229 226 223 220 217 214 212 211 211 211 211 213 215 216 218 218 217 215 214 214 214 215 215 215 216 217 219 220 221 222 222 223 225 227
285 283 282 280 278 276 275 274 272 271 272 272 270 267 266 265 262 259 257 255 254 253 253 252 250 247 245 244 244 245 247 247 248 247 247 247 247 246 245 244 242 241 239 239 238 236 235 234 233 231 230 228 227 224 221 217 215 213 212 211 211 211 212 213 215 217 218 216 215 214 213 214 214 214 214 214 215 216 218 219 220 220 220 222 224 227
286 286 284 282 281 280 277 275 273 273 273 274 274 272 270 267 264 260 257 255 254 252 252 251 250 249 247 246 246 246 247 247 247 247 247 247 247 247 246 244 242 240 238 237 237 236 235 234 233 232 229 227 224 221 218 215 213 212 211 211 211 211 212 213 214 215 216 215 214 213 213 213 213 214 214 214 215 216 217 217 218 218 219 221 223 226
282 282 280 278 278 279 280 279 277 275 273 272 272 271 269 268 267 264 260 257 255 252 251 251 251 250 249 248 248 248 247 247 247 247 247 248 248 247 247 245 243 239 237 236 235 235 234 233 232 231 228 226 222 219 215 212 211 210 211 211 211 212 212 212 213 213 213 214 214 213 212 212 213 213 213 214 214 215 216 216 216 217 218 220 223 225
277 277 277 277 276 275 276 276 277 276 274 270 268 266 265 266 267 266 264 260 257 253 250 248 248 250 251 251 250 249 248 248 247 247 247 248 248 247 247 246 243 240 236 235 234 233 232 231 231 229 227 224 220 216 213 210 209 209 209 210 211 211 211 211 211 211 211 212 212 212 211 211 212 213 214 214 214 214 215 215 216 216 218 221 223 225
278 277 278 279 278 276 271 270 273 274 273 270 267 265 263 261 262 265 267 263 260 256 251 246 244 244 247 249 249 248 248 248 249 249 249 248 248 248 247 246 244 240 236 234 233 232 231 230 228 226 223 220 217 213 210 208 207 207 207 208 209 210 210 209 209 209 210 211 210 210 209 210 212 213 213 213 213 214 214 214 215 216 218 221 223 226
279 279 278 279 280 278 274 272 273 274 271 269 269 267 262 258 257 260 267 263 259 257 252 245 241 239 240 242 244 245 246 247 248 249 249 248 247 246 246 245 242 239 236 233 232 231 230 228 226 223 220 217 213 210 208 207 206 205 206 207 208 208 208 208 208 208 209 209 208 207 208 209 211 212 212 212 212 213 213 214 215 217 219 222 224 226
278 278 276 275 276 275 273 272 273 272 267 267 266 264 262 262 260 261 264 260 257 255 251 246 242 239 238 238 238 240 242 244 247 248 247 246 244 243 241 240 239 236 233 231 231 230 229 226 223 220 216 213 210 208 206 205 204 204 204 205 205 205 206 206 207 208 208 207 206 206 206 208 209 210 211 211 211 212 213 214 216 218 220 222 224 226
282 280 278 275 273 271 269 269 268 265 264 264 264 263 263 263 263 266 270 265 258 253 248 244 242 240 237 236 235 236 238 242 245 246 245 244 241 238 236 235 234 232 230 227 227 226 225 222 219 216 213 210 208 206 204 203 203 202 202 202 202 203 204 205 206 207 206 205 204 205 205 207 208 209 210 210 210 211 212 214 216 219 221 223 225 226
287 286 283 281 279 277 276 276 277 275 272 271 268 266 265 262 261 265 273 272 265 257 249 244 243 242 240 236 234 234 234 236 239 242 243 241 239 236 232 230 230 229 226 223 222 221 220 216 213 211 209 207 205 203 202 201 201 200 200 200 200 201 202 204 205 205 203 203 203 204 205 207 208 209 210 210 210 211 213 215 217 219 221 223 225 226
288 284 280 280 280 280 281 281 282 282 281 280 279 278 277 273 265 260 264 268 267 262 252 245 244 247 245 241 237 232 228 227 230 235 238 239 239 236 231 226 224 224 222 219 218 216 214 211 209 207 205 204 203 202 200 199 199 198 198 198 199 200 202 202 202 201 201 202 203 204 205 207 208 209 210 210 211 212 213 216 218 220 221 223 224 225
287 281 278 278 277 278 281 281 279 279 281 282 281 280 279 277 275 273 273 270 267 262 246 236 239 246 249 240 234 229 223 219 223 230 235 238 239 236 230 222 219 218 217 216 214 212 209 206 205 205 204 203 202 200 198 197 196 196 196 196 198 199 200 199 198 199 200 201 203 204 205 206 208 209 211 211 212 213 215 217 219 221 222 223 224 224
291 289 285 278 277 280 283 282 279 277 278 277 276 274 273 276 279 282 281 278 274 261 238 232 232 236 242 234 227 223 218 212 216 225 231 236 237 235 228 220 216 216 215 213 211 209 206 203 203 202 202 201 199 198 196 195 193 193 193 194 195 196 195 195 195 197 200 202 203 204 205 207 208 210 210 211 212 214 215 217 219 221 222 223 223 223
294 292 288 283 282 284 283 281 279 278 276 275 275 276 276 278 281 283 281 278 271 258 240 236 235 235 237 234 231 224 215 208 210 217 226 233 234 230 222 215 213 214 215 213 211 208 204 202 201 201 200 198 196 194 193 191 190 190 190 191 192 192 191 192 195 199 201 202 204 204 205 207 208 210 211 212 213 214 216 217 219 220 221 222 223 223
293 290 287 286 286 285 282 280 279 278 277 277 278 279 279 280 279 278 276 274 265 253 244 237 235 236 239 243 240 230 213 204 204 210 221 229 229 223 215 208 207 211 214 213 211 208 205 201 199 197 196 194 192 190 190 189 188 188 188 189 189 189 191 195 199 202 203 204 204 204 205 207 208 210 211 212 213 215 216 217 219 220 221 222 222 223
290 288 287 288 288 287 285 283 282 282 280 279 280 280 279 278 276 273 271 267 264 257 246 238 237 239 241 244 243 232 212 198 195 203 218 226 226 218 209 203 203 207 212 212 210 208 205 201 197 193 191 188 186 185 185 186 186 186 187 187 188 190 194 199 202 204 204 205 205 204 205 206 208 209 211 213 214 215 216 217 218 219 220 221 222 222
285 286 288 290 290 288 287 286 285 283 281 281 282 282 281 280 278 275 272 271 269 263 248 242 242 243 243 245 244 233 212 198 196 201 212 222 224 215 205 199 200 205 209 209 207 205 203 200 195 191 186 184 182 182 182 183 184 186 187 188 190 193 197 202 204 205 205 205 204 204 204 206 207 209 211 212 213 214 215 217 218 219 220 221 221 222
281 283 285 286 286 286 286 287 287 287 286 285 284 283 282 281 280 280 278 278 276 270 257 250 247 245 242 242 240 227 210 201 200 201 202 214 223 209 200 194 197 203 208 204 200 199 198 197 193 189 184 182 181 181 182 183 185 186 188 189 192 196 200 203 204 205 205 205 204 204 205 206 207 209 210 211 212 214 215 217 218 219 220 221 221 222
280 281 282 283 283 283 284 286 287 289 290 290 289 288 286 284 283 281 280 279 278 274 267 255 248 244 239 236 229 215 205 201 200 199 201 215 221 203 190 187 191 200 206 201 194 190 190 190 190 188 184 182 182 184 185 187 189 189 190 191 194 197 201 203 204 205 205 205 205 205 205 206 207 209 210 211 212 214 215 217 218 219 220 221 221 222
280 280 280 281 281 282 283 283 284 286 287 287 288 288 288 287 285 284 283 281 279 275 268 255 245 238 232 225 217 208 205 200 198 198 204 216 211 186 181 182 187 196 200 195 189 184 182 183 186 186 185 183 184 187 190 192 193 193 192 192 195 198 201 203 204 205 204 204 204 205 205 207 208 209 210 211 212 214 216 217 218 219 220 221 222 222
280 279 280 280 281 282 282 282 282 283 283 283 283 284 284 284 284 282 281 280 277 272 260 244 227 227 222 210 207 210 209 202 200 201 206 210 190 163 175 180 184 188 187 179 176 177 176 177 181 185 186 187 189 191 194 196 195 193 191 192 195 198 201 203 204 204 204 204 204 205 206 207 208 209 210 211 212 214 215 216 217 218 219 221 222 223
283 282 282 282 283 283 283 282 282 282 281 280 279 279 279 279 279 277 275 274 270 264 242 231 234 234 222 212 215 216 211 203 201 203 206 205 188 130 169 176 177 173 164 161 166 171 173 175 180 185 189 191 193 194 195 194 192 190 190 192 196 199 202 203 203 203 203 204 204 205 206 207 208 209 210 211 212 213 214 215 216 217 218 220 223 225
286 285 285 285 285 284 283 283 282 281 281 280 279 278 277 276 274 270 266 269 264 254 231 227 233 235 226 219 215 209 203 201 202 203 200 194 177 126 159 167 167 162 153 149 156 164 172 177 182 186 191 193 194 194 192 190 188 189 190 193 197 200 202 202 203 203 204 204 205 206 207 208 209 209 210 210 211 212 213 214 214 215 217 219 223 225
290 289 288 287 286 285 285 284 283 282 281 280 280 280 278 275 271 267 268 267 261 247 229 228 232 233 228 215 199 193 195 201 202 198 190 178 157 136 151 159 163 161 155 144 135 142 164 177 183 187 189 191 191 189 186 184 186 189 193 196 198 200 201 202 203 204 205 206 207 208 209 209 209 209 209 210 210 210 211 211 212 213 216 219 223 225
296 294 292 289 288 286 285 284 283 283 283 284 284 283 281 277 271 268 267 265 256 240 225 229 233 231 217 165 131 167 211 211 202 194 185 176 160 140 150 158 165 165 157 145 121 96 155 181 183 184 185 186 186 184 181 181 184 189 193 196 198 200 202 203 204 206 208 209 209 210 210 210 209 209 209 210 210 210 210 211 211 213 215 219 223 226
299 296 293 291 289 288 287 287 287 287 288 288 288 286 283 279 274 271 269 265 254 241 231 230 231 225 199 160 161 203 228 210 198 190 183 181 175 163 161 163 168 169 164 156 148 154 172 177 178 179 180 181 181 182 181 182 185 189 192 193 195 198 201 203 206 209 210 211 211 211 211 210 210 210 210 210 210 211 211 211 212 213 215 218 222 225
298 296 293 292 291 292 292 292 292 292 291 291 289 287 283 279 276 274 272 268 259 247 239 235 233 224 206 194 198 205 199 189 187 185 182 182 178 170 168 167 169 172 173 166 161 159 157 156 163 168 173 175 179 183 185 186 188 190 192 193 195 197 199 201 205 208 210 211 212 212 212 212 211 211 210 211 211 212 212 212 213 214 216 219 221 224
296 295 293 293 294 295 295 295 294 294 292 291 288 285 282 280 277 275 272 269 263 255 247 242 238 229 215 211 212 203 155 167 176 179 179 177 170 165 169 168 168 170 172 165 139 101 112 126 141 152 162 168 176 183 188 191 193 195 196 197 199 201 202 203 203 205 206 208 209 211 212 212 212 211 211 212 213 213 214 215 215 217 219 220 222 224
297 296 296 297 297 297 297 297 296 294 292 289 286 284 283 282 280 277 273 269 264 258 254 252 248 239 219 215 211 182 139 160 171 175 176 172 163 160 168 170 169 168 164 151 113 91 85 101 119 134 150 160 169 179 188 193 197 200 202 205 207 208 209 208 207 205 204 204 204 205 206 207 208 209 210 212 214 216 217 218 219 220 221 222 223 224
299 299 299 299 298 298 298 298 297 295 291 287 285 284 284 283 281 279 277 274 268 261 255 253 252 244 227 213 191 161 144 163 169 173 175 175 170 166 168 174 173 169 161 151 129 109 97 106 121 128 132 145 160 175 186 193 198 202 205 209 211 213 213 213 211 208 207 205 203 202 201 201 202 204 205 208 211 215 218 220 222 222 222 223 223 223
300 299 299 299 299 300 300 299 297 294 290 287 285 284 283 282 281 281 281 278 272 264 256 252 249 241 228 214 200 180 163 166 169 172 176 179 177 173 169 172 172 167 160 153 140 126 114 110 123 129 129 126 144 171 184 192 196 198 201 205 208 209 211 212 211 210 208 206 205 204 203 203 203 204 205 206 208 211 214 218 221 222 223 222 222 222
299 299 299 301 302 302 302 299 296 292 288 287 286 285 284 282 280 280 279 275 267 258 250 244 240 230 217 207 197 185 175 170 169 171 176 180 179 174 167 165 165 163 156 150 142 132 119 114 116 119 121 126 136 158 172 183 187 188 190 193 196 199 202 206 208 208 208 207 208 208 209 209 210 211 212 212 212 213 213 216 219 221 223 224 225 225
299 300 302 303 305 306 304 300 295 289 285 284 284 284 283 280 276 272 266 256 242 228 214 198 181 168 172 178 181 180 176 169 167 169 175 177 175 168 157 152 154 156 154 149 143 138 130 126 128 130 127 122 130 149 162 171 176 179 181 184 187 190 195 200 204 206 208 209 210 211 213 215 216 217 217 218 218 218 218 218 219 219 222 226 228 229
301 302 304 306 308 309 306 300 293 287 282 278 276 276 273 267 256 235 198 169 157 151 145 136 127 122 123 131 142 152 157 159 162 166 169 169 167 160 149 142 141 145 147 145 143 141 140 138 142 146 147 136 126 142 156 168 173 175 176 178 182 188 195 200 204 207 209 210 211 213 215 217 218 219 219 220 221 221 222 223 223 223 223 225 227 229
304 304 305 307 309 309 306 299 291 283 276 271 265 259 247 223 182 153 138 130 124 122 121 120 118 114 113 115 120 129 139 147 153 158 159 157 156 153 148 142 139 140 142 143 143 144 144 142 139 137 136 136 138 139 144 162 172 174 172 171 176 187 195 200 204 207 210 212 213 214 216 218 220 220 221 223 224 225 226 227 227 227 227 226 226 226
305 305 306 308 309 308 303 294 285 276 268 257 244 230 211 173 138 122 116 114 110 108 110 111 109 106 105 106 110 116 124 131 138 142 144 145 148 150 150 147 144 143 143 143 145 148 148 144 137 130 126 126 125 123 131 150 163 169 171 171 174 181 189 198 204 208 211 214 216 218 219 221 223 225 226 226 227 228 229 229 229 229 228 228 226 224
306 306 307 307 307 304 297 289 280 268 254 236 227 223 212 182 148 123 111 106 102 100 101 101 100 96 91 90 94 101 108 114 121 126 130 133 139 145 149 150 150 150 147 144 144 147 151 149 144 139 135 130 121 111 118 142 155 164 172 175 174 173 183 201 210 213 215 218 220 222 223 224 225 226 226 226 227 227 228 227 227 226 225 224 224 224
307 306 306 305 302 298 292 283 270 255 242 236 238 238 226 211 190 159 130 113 106 102 101 101 100 98 92 86 84 87 93 101 107 112 114 118 123 131 140 148 154 156 153 146 140 140 145 147 146 143 143 139 128 115 117 136 147 158 168 174 171 164 160 201 212 215 217 219 220 221 221 221 221 222 222 221 221 222 222 222 223 223 223 223 223 224
305 305 304 303 299 294 284 272 259 252 250 255 259 255 243 225 206 170 136 115 108 105 103 104 102 99 96 93 89 85 86 92 98 101 101 102 105 110 120 137 151 159 160 153 146 141 137 135 138 143 147 145 134 125 125 137 149 160 170 178 181 181 185 191 200 204 209 211 212 212 211 212 213 215 217 219 220 221 221 222 223 224 225 225 226 227
305 305 304 302 297 289 276 267 261 258 258 260 265 270 260 236 191 133 122 111 107 106 108 110 105 99 94 97 98 94 88 87 89 92 94 95 98 102 109 122 139 154 163 164 161 155 145 136 137 144 148 146 139 133 135 144 154 165 176 188 198 205 208 213 206 197 196 196 196 197 199 202 208 215 222 226 228 228 227 227 227 228 227 228 229 231
307 306 305 301 293 285 278 273 269 264 264 267 275 286 279 120 111 111 112 111 108 106 108 110 107 103 102 107 108 105 98 91 88 89 91 95 99 103 107 113 122 133 144 151 157 161 159 152 150 150 148 140 135 140 151 159 163 170 182 195 206 215 221 228 230 222 209 202 199 199 201 208 217 225 233 237 238 236 234 233 233 232 230 229 230 231
310 307 304 299 292 283 279 276 272 269 271 286 308 355 78 94 98 101 105 106 103 97 94 97 98 97 98 106 110 111 107 103 98 94 93 97 101 106 109 113 117 120 121 121 121 121 126 139 152 156 151 136 122 131 165 180 183 185 190 199 206 212 220 229 232 231 227 225 223 220 220 224 228 232 237 242 245 246 244 242 239 236 234 233 232 232
311 307 303 297 290 285 281 278 273 271 276 291 320 77 87 90 93 95 96 96 94 91 90 92 93 94 93 97 103 108 108 108 106 103 99 100 104 109 114 117 120 121 120 118 115 113 112 116 127 147 159 158 142 138 167 188 197 202 203 205 207 211 219 230 234 234 234 235 235 234 233 233 232 232 235 238 244 249 251 250 246 242 239 237 236 236
310 305 299 293 288 284 281 277 271 267 267 264 199 90 87 90 94 96 92 88 85 88 93 96 97 96 91 92 99 103 104 103 103 102 102 105 109 113 117 120 121 119 116 112 109 108 113 124 139 165 192 200 186 170 175 190 201 207 210 212 212 214 220 230 236 237 237 237 237 237 237 238 238 237 236 233 237 245 250 252 251 248 244 241 240 240
310 303 296 290 286 282 278 274 267 257 247 230 203 90 86 92 98 99 94 86 83 86 93 99 101 99 95 97 100 102 103 103 102 101 103 109 113 116 116 116 113 106 95 83 71 60 52 44 54 212 216 223 219 207 196 193 198 204 207 212 216 219 222 230 235 238 237 238 237 236 236 238 239 239 237 233 235 242 249 251 252 251 248 245 243 243
310 304 296 290 285 280 275 268 258 243 226 214 188 116 92 92 94 94 90 85 83 87 93 99 101 102 103 105 105 105 108 109 108 108 110 116 118 117 114 111 105 93 73 57 40 32 28 18 4 322 256 227 224 222 214 202 194 192 198 209 217 221 224 230 236 239 239 239 238 235 234 235 234 233 232 229 231 238 246 248 248 248 247 245 243 243
Height
618 616 616 615 614 613 610 610 610 609 608 608 609 609 609 608 606 604 602 600 599 599 599 599 599 598 598 597 597 597 598 598 599 599 599 599 599 599 600 600 601 602 603 605 606 608 609 611 612 613 614 616 617 618 619 621 622 624 625 626 628 629 630 632 633 634 635 636 637 638 639 640 641 642 643 645 646 647 648 649 651 652 653 654 655 657
616 614 613 613 612 610 608 607 607 606 605 604 604 604 604 604 604 602 601 599 597 596 595 595 595 594 594 594 594 594 594 594 595 595 595 595 596 596 596 597 598 599 600 602 603 605 607 609 610 611 612 614 614 615 617 618 619 620 622 623 625 626 628 629 630 631 632 633 634 635 636 638 639 640 641 642 643 645 646 647 648 649 651 652 653 655
614 612 610 610 609 608 605 604 604 604 603 602 601 600 600 601 600 600 599 597 596 594 593 592 591 590 590 590 590 590 591 591 592 592 592 592 592 593 593 594 595 596 597 599 600 602 604 606 607 608 609 611 612 613 614 615 616 617 619 620 623 624 626 627 629 629 630 630 631 632 634 635 636 638 639 640 641 643 644 645 646 647 648 650 651 653
613 610 608 608 607 605 603 602 601 601 600 599 599 598 598 597 597 596 596 595 594 592 591 589 588 587 587 586 587 587 588 588 589 589 589 589 589 589 590 591 592 593 595 596 597 599 601 602 604 604 606 607 609 610 611 612 613 614 616 618 620 622 624 625 626 627 628 628 629 630 631 633 634 635 636 637 639 640 641 643 644 645 646 648 649 651
611 609 607 606 604 602 600 600 599 598 597 596 596 595 595 594 593 592 592 592 592 591 589 588 586 584 584 583 583 583 584 585 585 585 585 585 585 586 587 588 589 591 593 594 594 595 597 598 599 601 602 603 605 606 608 609 610 611 613 615 617 619 621 622 624 624 625 626 626 628 629 630 631 633 634 635 636 638 639 640 641 643 644 645 647 648
608 607 605 604 602 599 598 597 596 596 595 594 593 592 592 591 590 589 588 588 588 587 587 586 584 583 581 580 579 580 580 581 582 582 582 582 582 583 584 585 587 589 590 591 591 592 593 594 595 597 598 599 601 603 604 605 606 608 609 611 613 615 617 619 620 621 622 623 624 625 626 628 629 630 631 632 634 635 637 638 639 640 642 643 645 646
604 604 603 601 599 597 595 594 594 594 593 592 590 589 589 588 587 586 585 584 584 583 583 582 581 580 579 577 577 577 577 578 579 579 579 579 579 580 581 582 584 586 587 587 588 589 589 590 591 593 594 596 597 599 600 602 603 604 606 608 609 611 613 614 616 617 619 620 621 623 624 625 627 628 629 630 632 633 635 636 637 639 640 641 643 644
602 601 601 600 598 595 593 592 591 591 591 590 589 587 586 585 584 583 582 581 580 580 580 579 578 577 576 575 574 574 575 575 576 576 576 577 577 577 578 579 580 582 583 583 584 584 585 586 588 589 591 592 594 595 596 598 599 601 603 604 606 608 609 611 612 614 615 617 619 620 622 623 624 626 627 628 630 631 633 634 635 637 638 639 641 642
601 598 597 597 595 593 590 589 588 589 589 588 587 585 584 582 580 579 579 578 577 577 577 576 575 574 573 572 572 572 572 573 573 573 573 574 574 574 575 575 576 577 578 579 579 580 582 583 584 586 588 589 590 591 592 594 595 597 599 601 603 605 606 608 609 610 612 614 616 618 619 621 622 624 625 626 628 629 631 632 634 634 636 637 639 640
599 596 594 592 592 591 589 585 584 584 585 585 584 583 582 580 578 577 576 574 574 574 574 574 573 571 570 569 569 569 570 570 570 570 570 570 570 571 571 572 573 573 574 574 575 576 578 579 581 582 584 585 586 587 589 590 591 593 596 598 600 602 604 605 606 607 609 611 613 615 617 619 620 622 623 625 626 628 629 630 632 633 634 636 637 638
596 594 592 590 588 588 587 584 581 581 582 581 580 579 579 578 577 575 573 571 569 569 570 569 569 568 567 566 566 567 568 568 567 567 567 567 568 568 569 569 570 570 570 571 572 573 574 575 576 578 579 581 582 584 585 586 588 590 592 595 597 599 601 602 604 605 606 608 610 612 614 617 619 620 622 623 624 626 627 629 630 631 633 634 635 636
594 592 590 588 586 584 583 581 580 579 579 579 578 576 574 574 574 574 571 568 566 565 565 564 564 563 563 562 563 563 565 565 565 564 565 565 566 566 566 566 567 567 568 568 569 570 571 571 572 574 575 576 578 579 581 583 584 586 588 591 594 596 598 599 601 603 604 606 608 610 612 614 616 618 620 621 623 624 625 627 628 629 631 632 634 634
592 590 588 585 583 582 580 579 577 576 576 576 575 573 570 570 570 570 568 565 563 562 562 561 560 559 558 558 559 559 561 562 562 562 563 563 563 564 564 564 564 564 565 565 566 567 568 569 569 570 571 572 574 575 577 579 580 582 584 586 589 592 594 596 598 600 602 604 605 607 609 612 614 616 618 619 621 622 624 625 626 628 629 630 632 633
590 588 586 583 581 579 577 576 574 573 572 572 571 569 568 567 567 567 566 563 560 559 559 558 556 555 554 554 555 556 558 559 560 560 561 560 560 560 560 560 560 561 562 563 563 564 565 566 567 568 569 569 571 572 574 575 577 579 581 583 586 588 591 593 595 598 600 602 604 605 607 610 612 614 616 617 619 620 621 623 625 626 628 629 630 631
590 588 585 583 580 578 576 574 573 571 569 569 567 566 565 564 563 563 563 561 559 558 557 555 554 552 552 551 551 553 554 557 558 559 558 557 556 557 557 558 558 559 559 560 560 560 561 563 564 564 566 567 568 570 572 573 574 576 578 581 583 585 588 590 593 595 598 600 602 603 605 608 610 612 614 615 617 618 620 621 623 625 626 627 628 629
589 587 584 581 579 577 575 574 573 571 569 568 567 566 564 562 560 559 559 559 558 557 556 554 552 550 549 548 548 549 551 553 555 556 556 555 554 554 554 555 556 556 557 557 557 558 559 559 560 561 562 564 565 567 569 570 572 574 576 579 581 583 585 588 591 594 596 598 600 602 604 606 608 610 612 614 615 616 618 620 622 623 624 625 626 627
588 585 583 580 577 575 574 573 571 569 568 567 566 564 563 561 559 558 557 556 555 554 553 552 551 549 546 545 545 545 547 549 551 553 554 553 552 551 551 553 553 554 554 554 554 554 555 556 557 558 559 561 563 564 567 568 570 572 574 577 579 581 584 586 589 592 594 596 598 600 602 604 606 609 610 612 613 615 617 618 620 621 622 623 624 625
587 584 581 579 576 573 571 570 569 567 566 564 563 562 560 559 558 557 555 554 554 552 550 549 548 546 544 542 541 541 543 545 548 550 551 550 549 548 549 550 550 550 551 551 550 551 551 552 554 555 557 559 561 564 566 568 569 571 574 576 578 580 582 585 588 590 593 594 596 598 600 602 604 607 609 610 612 613 615 616 618 619 620 621 622 623
586 584 581 577 574 571 570 568 567 565 564 562 561 559 558 556 556 555 554 552 551 550 549 547 545 543 541 538 537 537 538 541 544 546 547 546 545 545 546 547 549 549 549 549 549 549 549 549 550 552 554 557 560 563 565 567 569 571 573 575 577 579 581 584 587 589 591 593 595 596 599 601 603 605 607 608 610 612 613 614 616 617 618 619 620 621
586 583 580 577 574 571 568 566 565 564 562 561 559 558 556 554 554 552 551 550 549 547 546 544 542 539 538 536 534 534 535 537 540 542 543 542 542 542 543 544 546 547 547 548 548 548 548 548 549 550 553 556 559 561 564 566 568 570 572 574 576 578 581 583 586 588 590 592 593 595 597 599 601 603 605 607 608 610 611 613 614 615 616 617 619 619
586 581 578 576 574 570 566 564 563 562 561 560 558 556 554 552 550 549 547 546 545 544 543 541 539 536 535 534 533 533 533 534 537 539 539 539 539 539 540 542 543 544 545 546 546 547 547 548 549 549 552 554 557 560 562 564 566 568 570 573 575 578 580 583 585 587 589 590 592 594 595 598 599 601 603 605 607 608 609 611 612 613 614 615 617 618
585 580 577 575 574 571 566 563 561 560 559 558 556 554 552 550 548 546 544 543 542 541 539 537 534 533 532 532 531 531 530 531 533 534 536 537 537 536 538 539 541 543 543 544 544 545 546 547 549 550 552 554 556 559 561 563 565 567 569 572 574 577 579 582 584 586 588 589 591 592 594 596 598 600 602 603 605 606 608 609 610 611 612 614 615 616
584 579 576 574 572 569 566 563 560 558 557 556 554 552 550 549 547 544 543 541 539 538 535 533 531 530 530 530 530 529 529 529 529 531 533 534 534 534 535 537 539 541 541 542 543 543 545 546 548 550 552 554 556 558 559 561 563 566 568 571 573 576 578 581 583 585 586 588 589 591 593 594 596 598 600 602 603 604 606 607 608 609 610 612 613 614
581 578 574 572 569 567 565 562 560 558 556 554 552 550 548 546 544 542 540 539 537 535 533 531 529 529 528 528 528 528 528 528 529 530 532 531 531 531 533 535 537 539 539 540 541 542 544 545 547 549 551 554 555 556 558 560 562 564 567 569 572 574 577 579 582 584 585 587 588 590 591 593 595 597 599 600 601 603 604 605 606 608 609 610 611 612
578 575 572 569 567 565 563 561 559 557 555 553 551 549 547 545 543 540 538 536 534 533 531 529 529 527 526 527 527 526 526 527 528 529 529 529 528 529 532 533 535 537 538 539 540 541 543 545 547 549 551 553 554 556 557 559 561 563 566 569 571 574 576 579 580 582 584 585 587 589 590 592 594 595 597 598 599 601 602 604 605 606 607 608 609 611
574 571 569 566 564 562 560 558 556 554 553 552 550 547 545 543 541 538 536 534 532 531 529 529 527 525 524 524 525 524 524 525 525 526 526 526 527 529 531 532 534 536 538 539 540 541 543 544 546 548 550 551 553 555 556 558 560 562 565 567 570 573 575 577 579 581 583 584 585 587 589 591 592 594 595 597 598 599 600 602 603 604 605 607 608 609
569 567 565 563 560 558 556 554 552 551 549 548 547 545 544 541 539 535 533 530 529 529 528 526 524 522 522 523 523 522 522 523 524 524 524 525 527 529 531 532 534 535 538 539 540 542 543 544 545 547 549 550 552 554 555 557 559 562 564 566 569 572 574 576 578 580 581 583 584 586 588 589 591 592 594 595 596 598 599 600 601 603 604 605 606 608
565 563 561 559 557 554 553 550 549 547 545 543 542 541 541 539 536 533 529 527 526 526 524 523 521 520 519 519 519 519 521 522 522 523 524 525 527 529 530 532 533 535 537 539 541 543 544 544 545 546 548 549 551 553 555 557 559 561 564 566 568 571 573 575 577 578 580 582 583 585 586 588 589 590 592 593 595 596 597 599 600 601 603 604 605 606
561 559 557 555 553 551 549 547 545 543 541 540 539 538 537 536 534 530 526 524 524 523 521 519 518 516 516 516 517 518 520 520 520 521 523 525 527 528 529 531 533 534 536 539 542 544 544 545 545 546 547 548 550 552 554 557 559 561 563 565 568 570 572 574 575 577 579 580 582 583 585 586 588 589 590 592 593 594 596 597 599 600 601 602 603 604
558 556 554 551 549 548 546 544 542 540 538 537 535 534 533 532 530 527 524 522 521 519 518 516 514 514 514 515 517 519 519 519 519 520 522 524 526 528 529 531 532 533 535 538 541 544 544 545 545 545 546 547 549 551 553 556 558 560 562 564 567 569 571 573 574 576 578 579 580 582 583 584 586 587 589 590 592 593 594 596 597 598 599 600 602 603
554 552 550 547 545 544 543 541 539 537 535 534 532 531 529 528 526 524 522 520 518 516 514 513 511 511 511 514 516 517 515 514 515 517 519 522 524 525 528 530 531 532 532 534 537 541 543 544 545 545 546 547 549 550 553 555 557 559 561 563 565 568 569 571 573 575 576 578 579 580 582 583 584 586 587 589 590 591 593 594 595 597 598 599 600 601
552 549 547 544 542 541 540 538 537 535 533 531 529 527 526 524 523 521 519 517 515 513 511 509 508 508 508 509 510 510 510 510 512 514 517 519 522 524 526 528 529 531 532 532 533 535 538 541 543 544 546 547 549 550 553 554 556 558 560 562 564 566 568 570 572 574 575 576 578 579 580 582 583 584 586 587 589 590 591 593 594 595 596 597 598 599
550 547 544 542 540 539 537 536 534 532 530 528 526 524 523 521 520 518 517 515 513 511 509 508 506 506 506 506 506 506 507 509 510 512 515 517 520 523 525 527 528 530 531 532 533 533 535 538 540 543 545 547 549 550 552 554 556 558 560 562 564 565 567 569 570 572 573 574 576 577 579 580 582 583 584 586 587 589 590 591 592 594 594 595 596 597
548 545 543 541 539 537 535 533 532 530 528 526 524 522 521 519 518 516 514 513 511 510 509 507 506 505 505 505 506 506 508 509 510 512 514 516 518 521 524 525 526 528 530 532 533 534 536 537 539 542 545 547 549 550 552 554 556 558 560 561 563 565 566 568 569 570 572 573 574 576 577 579 580 582 583 584 586 587 588 589 591 592 593 594 594 595
547 544 542 539 537 535 533 531 529 528 526 524 523 521 519 518 516 514 513 511 510 509 508 506 505 504 504 504 505 506 508 509 510 511 513 515 516 519 521 523 524 526 528 530 532 534 536 538 539 540 544 547 549 551 553 554 556 558 560 561 563 564 565 567 568 569 570 572 573 574 575 577 578 579 581 582 584 585 586 588 589 590 591 592 593 594
547 543 540 538 536 534 531 529 528 526 524 523 521 520 518 517 515 514 512 511 509 508 507 506 505 504 503 503 503 504 506 507 509 511 513 514 515 517 519 521 522 524 526 528 530 533 535 538 539 540 543 546 549 551 553 554 555 557 559 561 562 564 564 566 567 568 569 571 572 573 574 576 577 578 579 580 582 583 585 586 587 589 590 591 592 592
546 542 539 537 535 533 530 528 526 525 524 522 520 519 518 516 515 513 512 510 509 508 507 506 505 504 503 503 503 503 504 506 508 510 512 514 515 516 518 519 521 523 524 526 529 531 534 537 540 542 544 546 548 550 552 553 555 557 558 560 561 562 564 564 566 567 568 569 571 572 574 575 576 577 578 579 581 582 583 584 586 587 588 589 590 591
545 542 539 536 534 532 530 528 526 524 523 522 520 519 518 516 515 513 512 510 509 508 507 505 504 504 504 503 504 504 504 506 508 510 512 514 514 516 517 519 521 523 524 525 527 529 533 536 539 542 544 546 547 548 549 552 554 556 557 558 560 561 562 563 564 566 567 569 570 571 573 574 575 576 577 578 579 581 582 583 584 585 587 588 589 589
544 541 538 535 534 531 529 527 525 524 523 521 520 519 518 516 515 514 512 511 509 508 507 505 505 504 504 504 504 505 506 507 509 510 512 513 514 515 516 519 521 523 524 526 527 529 531 534 537 539 543 545 547 548 549 550 552 554 555 557 559 560 561 562 564 565 566 567 569 570 571 572 574 574 576 577 578 579 580 581 582 584 585 586 587 587
544 541 538 535 533 531 529 527 525 524 522 521 520 519 518 517 515 514 513 511 510 509 507 506 505 505 505 505 506 507 508 509 510 511 512 513 514 516 517 519 520 523 525 527 529 530 532 534 536 538 540 543 545 547 549 550 551 553 554 557 559 560 560 561 563 564 565 566 568 569 570 571 572 573 574 575 576 577 579 579 581 582 583 584 585 585
544 540 537 534 533 531 529 527 525 524 522 521 520 519 518 517 516 514 513 512 511 509 508 507 506 505 506 506 507 508 509 510 511 512 513 514 515 517 518 519 521 523 525 528 530 532 533 534 536 538 540 542 544 545 547 549 550 552 554 555 557 558 559 561 562 563 564 565 566 568 569 570 571 572 573 574 575 576 577 578 579 580 581 582 583 583
543 540 537 534 532 530 528 526 524 524 523 522 521 520 519 518 517 516 514 513 512 511 510 509 507 507 508 509 509 510 511 512 513 514 515 516 517 519 520 521 522 524 526 529 531 533 534 535 536 538 539 540 542 544 547 549 550 551 553 554 555 557 559 560 561 562 563 564 565 566 568 569 570 571 572 573 574 575 576 577 578 579 580 580 581 581
542 539 537 534 532 529 528 526 525 524 523 522 521 520 519 518 518 517 515 514 513 512 511 510 509 509 509 511 512 513 514 514 515 516 517 518 519 520 521 522 524 525 527 529 532 534 535 536 537 538 539 539 541 543 546 548 550 551 553 554 555 557 559 559 560 561 562 563 564 565 567 568 569 570 571 572 573 574 575 576 577 577 578 578 579 579
541 539 536 533 531 529 528 526 525 524 523 522 521 520 519 519 518 518 516 515 514 514 513 512 511 510 511 512 514 515 516 516 517 517 518 519 520 521 523 524 525 527 528 530 532 534 535 537 538 539 540 540 541 543 545 548 549 551 552 554 555 556 557 558 559 560 561 562 564 565 566 567 568 569 570 571 572 573 574 574 575 575 576 576 577 577
540 537 534 532 530 529 528 526 525 524 524 523 522 521 520 519 519 518 517 516 515 515 514 513 512 512 513 514 515 516 517 518 518 519 520 521 522 523 524 526 527 529 530 531 532 534 535 537 538 539 540 541 542 544 545 547 549 551 552 554 555 556 557 558 559 560 561 562 563 564 566 567 568 569 569 570 571 571 572 573 573 574 574 575 575 576
539 536 534 531 530 529 528 527 526 525 524 523 522 522 521 520 519 519 518 517 517 516 515 514 514 514 514 516 516 517 518 519 520 521 522 523 524 525 526 527 529 530 531 533 534 535 535 536 538 539 540 541 543 544 546 548 549 551 553 554 555 556 557 558 559 560 561 562 563 564 565 566 567 568 569 569 569 570 570 571 571 572 572 573 574 574
538 535 533 531 530 529 528 527 526 525 524 524 523 522 521 521 520 520 519 519 518 517 516 516 515 515 516 517 517 518 519 520 522 523 524 525 526 526 527 529 530 531 532 533 534 535 536 537 538 538 539 541 543 545 547 548 550 551 553 554 555 556 557 558 559 560 561 562 563 564 565 566 567 567 567 568 568 568 569 569 569 570 570 571 572 572
537 534 532 531 529 529 528 527 526 525 525 524 523 523 522 522 521 521 520 520 519 519 518 517 517 517 518 519 519 519 520 521 523 524 525 526 527 528 529 529 530 531 532 533 534 535 536 537 538 539 540 541 543 545 547 549 550 552 553 554 555 556 557 558 558 559 560 561 562 563 564 565 565 566 566 567 567 567 567 567 568 568 569 569 570 570
537 534 532 530 529 528 528 527 526 526 525 524 524 523 523 522 522 522 521 521 520 520 519 519 519 519 519 520 521 521 522 523 524 525 526 527 528 529 529 530 531 531 532 533 534 535 536 537 538 539 540 542 544 545 547 549 551 552 553 554 555 556 557 557 558 559 560 560 561 562 563 564 564 564 565 565 565 565 565 565 566 566 567 568 568 569
536 534 532 530 529 528 527 527 526 526 525 525 524 524 524 523 523 522 522 522 521 521 521 520 520 520 521 522 523 523 524 525 526 527 528 528 529 529 530 530 531 531 532 533 534 535 536 538 539 540 541 543 544 546 548 549 550 552 553 554 554 555 556 557 558 558 559 560 560 561 562 562 563 563 564 564 564 564 564 564 564 564 565 566 567 567
535 533 532 530 529 528 527 527 526 526 525 525 525 524 524 524 524 523 523 523 523 522 522 522 522 522 522 523 524 525 525 526 527 528 529 529 529 530 530 530 531 532 533 535 537 539 539 540 541 542 543 544 545 546 547 549 550 551 552 553 554 555 556 556 557 558 558 559 559 560 560 561 561 562 562 562 563 563 563 562 562 563 564 564 565 565